COSMOS 249 DEB

基本信息
目录编号:
3793
目录名称:
COSMOS 249 DEB
国际标识:
1968-091BA
轨道中心:
EARTH
物体状态:
在轨
发射日期:
1968-10-20 UTC
轨道信息
数据来源: 国际轨道数据
星历时间: 2026-07-13T08:12:42+0800
半长轴: 7556.455km
偏心率: 0.0609769
轨道倾角: 62.215°
近地点辐角: 340.491°
升交点赤经: 183.977°
平近点角: 17.364°
近地点: 717.548km
远地点: 1639.088km
周期: 108.952分钟
每日圈数: 13.216779
详细信息
发射场:
TTMTR
轨道高度:
LEO
数据来源:
AOE Integration Group
参考系:
TEME
时间系统:
UTC
历元类型:
SGP4
2D轨道图
3D轨道图
轨道高度分析图
轨道倾角分析图
轨道综合分析图
查看轨道综合分析图